Location: ????????
(56.1167°N, 38.6333°E)
Time: 08:58:23
(UTC+00:00)

Cosmos 1607 - Pass Details

Date: 18 November 2025
Orbit: 927 x 974 km, 65.0° (Epoch: 14 December)

Event Time Altitude Azimuth Distance (km) Brightness Sun altitude
Rises 13:56:31 0° 251° (WSW) 3,574 9.4 -6.2°
Reaches altitude 10° 13:59:07 10° 256° (WSW) 2,633 7.9 -6.5°
Maximum altitude 14:05:06 53° 333° (NNW) 1,139 4.4 -7.3°
Drops below altitude 10° 14:11:10 10° 50° (NE) 2,658 5.7 -8.1°
Enters shadow 14:11:31 - 51° (NE) 2,785 5.8 -8.1°
